Location: Biltmore Gardens
(41.6070°N, 83.4666°W)
Time: 13:27:20
(UTC+00:00)

IRS-1D - Pass Details

Date: 14 July 2020
Orbit: 739 x 817 km, 98.6° (Epoch: 04 August)

Event Time Altitude Azimuth Distance (km) Brightness Sun altitude
Rises 07:21:59 0° 19° (NNE) 3,188 8.2 -22.5°
Reaches altitude 10° 07:24:21 10° 25° (NNE) 2,258 7.1 -22.3°
Maximum altitude 07:29:09 48° 100° (E) 962 4.1 -21.9°
Enters shadow 07:30:55 33° 152° (SSE) 1,224 4.2 -21.8°
